Weather History for KCGE - March, 2013

Change the Weather History Date:

Saturday, March 30, 2013

  Actual Average (KESN) Record (KESN)
Temperature  
Mean Temperature 44 °F -  
Max Temperature 55 °F 59 °F 82 °F (1963)
Min Temperature 32 °F 40 °F 27 °F (1955)
Degree Days  
Heating Degree Days 22    
Moisture  
Dew Point 30 °F    
Average Humidity 63    
Maximum Humidity 100    
Minimum Humidity 33    
Precipitation  
Precipitation 0.00 in - - ()
Sea Level Pressure  
Sea Level Pressure 30.17 in    
Wind  
Wind Speed 2 mph (North)    
Max Wind Speed 12 mph    
Max Gust Speed -    
Visibility 10 miles    
Events      
Averages and records for this station are not official NWS values.
T = Trace of Precipitation, MM = Missing Value Source: NWS Daily Summary

Daily Weather History Graph

Daily Weather History Graph

Search for Another Location

Airport or City:

Trip Planner

Search our weather history database for the weather conditions in past years. The results will help you decide how hot, cold, wet, or windy it might be!

Date:

Astronomy

Mar. 30, 2013 Rise Set
Actual Time 6:51 AM EDT 7:25 PM EDT
Civil Twilight 6:25 AM EDT 7:52 PM EDT
Nautical Twilight 5:53 AM EDT 8:24 PM EDT
Astronomical Twilight 5:21 AM EDT 8:56 PM EDT
Moon 11:26 PM EDT (3/30) 8:47 AM EDT (3/30)
Length of Visible Light 13h 27m
Length of Day
12h 34m
Waning Gibbous, 86% of the Moon is Illuminated
Mar 30
Waning Gibbous
Apr 3
Last Quarter
Apr 10
New
Apr 18
First Quarter
Apr 25
Full

Hourly Weather History & Observations

Time (EDT) Temp. Windchill Dew Point Humidity Pressure Visibility Wind Dir Wind Speed Gust Speed Precip Events Conditions
12:11 AM 35.6 °F - 32.0 °F 87% 30.19 in 10.0 mi Calm Calm - N/A   Clear
12:31 AM 35.6 °F - 32.0 °F 87% 30.19 in 10.0 mi Calm Calm - N/A   Clear
1:11 AM 33.8 °F - 32.0 °F 93% 30.19 in 10.0 mi Calm Calm - N/A   Clear
1:31 AM 33.8 °F - 32.0 °F 93% 30.19 in 10.0 mi Calm Calm - N/A   Clear
1:51 AM 33.8 °F - 32.0 °F 93% 30.19 in 10.0 mi Calm Calm - N/A   Clear
2:31 AM 33.8 °F - 32.0 °F 93% 30.19 in 10.0 mi Calm Calm - N/A   Clear
2:51 AM 33.8 °F - 32.0 °F 93% 30.18 in 10.0 mi Calm Calm - N/A   Clear
3:11 AM 32.0 °F - 30.2 °F 93% 30.18 in 10.0 mi Calm Calm - N/A   Clear
3:31 AM 32.0 °F - 32.0 °F 100% 30.18 in 10.0 mi Calm Calm - N/A   Clear
3:51 AM 32.0 °F - 30.2 °F 93% 30.18 in 10.0 mi Calm Calm - N/A   Clear
4:12 AM 32.0 °F - 32.0 °F 100% 30.18 in 10.0 mi Calm Calm - N/A   Scattered Clouds
4:32 AM 33.8 °F - 32.0 °F 93% 30.18 in 10.0 mi Calm Calm - N/A   Scattered Clouds
4:52 AM 33.8 °F - 32.0 °F 93% 30.18 in 10.0 mi Calm Calm - N/A   Clear
5:12 AM 33.8 °F - 32.0 °F 93% 30.18 in 10.0 mi Calm Calm - N/A   Scattered Clouds
5:32 AM 33.8 °F - 32.0 °F 93% 30.18 in 10.0 mi Calm Calm - N/A   Clear
5:52 AM 33.8 °F - 32.0 °F 93% 30.18 in 10.0 mi Calm Calm - N/A   Clear
6:12 AM 33.8 °F - 32.0 °F 93% 30.19 in 10.0 mi Calm Calm - N/A   Clear
6:32 AM 33.8 °F - 32.0 °F 93% 30.19 in 10.0 mi Calm Calm - N/A   Clear
6:52 AM 33.8 °F - 32.0 °F 93% 30.19 in 10.0 mi Calm Calm - N/A   Clear
7:12 AM 33.8 °F - 32.0 °F 93% 30.20 in 10.0 mi Calm Calm - N/A   Clear
7:32 AM 33.8 °F - 32.0 °F 93% 30.20 in 10.0 mi Calm Calm - N/A   Clear
7:52 AM 33.8 °F 30.8 °F 32.0 °F 93% 30.21 in 10.0 mi SSE 3.5 mph - N/A   Scattered Clouds
10:32 AM 51.8 °F - 28.4 °F 41% 30.21 in 10.0 mi North 6.9 mph - N/A   Clear
10:52 AM 51.8 °F - 28.4 °F 41% 30.21 in 10.0 mi NNW 4.6 mph - N/A   Clear
11:12 AM 53.6 °F - 30.2 °F 41% 30.21 in 10.0 mi Calm Calm - N/A   Clear
11:32 AM 53.6 °F - 30.2 °F 41% 30.20 in 10.0 mi NNE 3.5 mph - N/A   Clear
11:52 AM 53.6 °F - 30.2 °F 41% 30.20 in 10.0 mi Calm Calm - N/A   Clear
12:12 PM 53.6 °F - 30.2 °F 41% 30.19 in 10.0 mi NNW 5.8 mph - N/A   Clear
12:32 PM 53.6 °F - 30.2 °F 41% 30.19 in 10.0 mi NNW 4.6 mph - N/A   Clear
12:53 PM 53.6 °F - 28.4 °F 38% 30.18 in 10.0 mi NNW 8.1 mph - N/A   Scattered Clouds
1:13 PM 53.6 °F - 26.6 °F 35% 30.18 in 10.0 mi NNW 6.9 mph - N/A   Scattered Clouds
1:33 PM 53.6 °F - 26.6 °F 35% 30.17 in 10.0 mi NNW 11.5 mph - N/A   Clear
1:53 PM 53.6 °F - 24.8 °F 33% 30.17 in 10.0 mi North 10.4 mph - N/A   Clear
2:13 PM 53.6 °F - 24.8 °F 33% 30.16 in 10.0 mi NNW 11.5 mph - N/A   Clear
2:33 PM 55.4 °F - 26.6 °F 33% 30.15 in 10.0 mi North 9.2 mph - N/A   Clear
2:53 PM 55.4 °F - 28.4 °F 36% 30.15 in 10.0 mi North 8.1 mph - N/A   Clear
3:13 PM 55.4 °F - 28.4 °F 36% 30.14 in 10.0 mi North 6.9 mph - N/A   Clear
3:33 PM 55.4 °F - 28.4 °F 36% 30.13 in 10.0 mi NNW 5.8 mph - N/A   Clear
3:53 PM 55.4 °F - 28.4 °F 36% 30.13 in 10.0 mi Calm Calm - N/A   Clear
4:13 PM 55.4 °F - 28.4 °F 36% 30.12 in 10.0 mi North 3.5 mph - N/A   Clear
4:33 PM 55.4 °F - 28.4 °F 36% 30.13 in 10.0 mi NW 5.8 mph - N/A   Clear
4:53 PM 55.4 °F - 26.6 °F 33% 30.13 in 10.0 mi Calm Calm - N/A   Clear
5:13 PM 55.4 °F - 26.6 °F 33% 30.12 in 10.0 mi Calm Calm - N/A   Clear
5:33 PM 55.4 °F - 28.4 °F 36% 30.12 in 10.0 mi Calm Calm - N/A   Clear
5:53 PM 55.4 °F - 26.6 °F 33% 30.12 in 10.0 mi Calm Calm - N/A   Clear
6:13 PM 55.4 °F - 26.6 °F 33% 30.12 in 10.0 mi Calm Calm - N/A   Clear
6:33 PM 55.4 °F - 28.4 °F 36% 30.12 in 10.0 mi Calm Calm - N/A   Clear
6:53 PM 55.4 °F - 28.4 °F 36% 30.13 in 10.0 mi Calm Calm - N/A   Clear
7:13 PM 53.6 °F - 28.4 °F 38% 30.13 in 10.0 mi Calm Calm - N/A   Clear
7:33 PM 50.0 °F - 30.2 °F 47% 30.13 in 10.0 mi Calm Calm - N/A   Clear
7:53 PM 50.0 °F - 32.0 °F 50% 30.13 in 10.0 mi Calm Calm - N/A   Clear
8:13 PM 46.4 °F - 32.0 °F 57% 30.14 in 10.0 mi Calm Calm - N/A   Clear
8:33 PM 44.6 °F - 32.0 °F 61% 30.15 in 10.0 mi Calm Calm - N/A   Clear
8:53 PM 42.8 °F - 32.0 °F 66% 30.15 in 10.0 mi Calm Calm - N/A   Clear
9:13 PM 42.8 °F - 32.0 °F 66% 30.16 in 10.0 mi Calm Calm - N/A   Clear
9:34 PM 41.0 °F - 32.0 °F 70% 30.16 in 10.0 mi Calm Calm - N/A   Clear
9:54 PM 41.0 °F - 32.0 °F 70% 30.17 in 10.0 mi Calm Calm - N/A   Clear
10:14 PM 41.0 °F 36.4 °F 32.0 °F 70% 30.17 in 10.0 mi SSE 6.9 mph - N/A   Clear
10:34 PM 41.0 °F 37.1 °F 32.0 °F 70% - 10.0 mi SSE 5.8 mph - N/A   Clear
10:54 PM 41.0 °F 36.4 °F 32.0 °F 70% 30.16 in 10.0 mi SE 6.9 mph - N/A   Clear
11:14 PM 41.0 °F 37.1 °F 32.0 °F 70% 30.16 in 10.0 mi SE 5.8 mph - N/A   Clear
11:34 PM 41.0 °F 37.1 °F 33.8 °F 76% 30.15 in 10.0 mi SE 5.8 mph - N/A   Clear
11:54 PM 39.2 °F 35.9 °F 32.0 °F 75% 30.15 in 10.0 mi SSE 4.6 mph - N/A   Clear